Weather History for Niagara Falls, NY

Change the Weather History Date:

Saturday, May 4, 2013

  Actual Average Record
Temperature  
Mean Temperature 62 °F -  
Max Temperature 71 °F 62 °F 82 °F (2001)
Min Temperature 54 °F 42 °F 28 °F (2004)
Degree Days  
Heating Degree Days 2    
Growing Degree Days 12 (Base 50)    
Moisture  
Dew Point 39 °F    
Average Humidity 45    
Maximum Humidity 64    
Minimum Humidity 27    
Precipitation  
Precipitation 0.00 in - - ()
Sea Level Pressure  
Sea Level Pressure 30.20 in    
Wind  
Wind Speed 7 mph (ESE)    
Max Wind Speed 17 mph    
Max Gust Speed 24 mph    
Visibility 10 miles    
Events      
Averages and records for this station are not official NWS values.
T = Trace of Precipitation, MM = Missing Value Source: NWS Daily Summary

Daily Weather History Graph

Daily Weather History Graph

Search for Another Location

Airport:

Trip Planner

Search our weather history database for the weather conditions in past years. The results will help you decide how hot, cold, wet, or windy it might be!

Date:

Astronomy

May. 04, 2013 Rise Set
Actual Time 6:04 AM EDT 8:20 PM EDT
Civil Twilight 5:33 AM EDT 8:52 PM EDT
Nautical Twilight 4:54 AM EDT 9:31 PM EDT
Astronomical Twilight 4:11 AM EDT 10:14 PM EDT
Moon 3:10 AM EDT (5/4) 3:08 PM EDT (5/4)
Length of Visible Light 15h 18m
Length of Day
14h 15m
Waning Crescent, 27% of the Moon is Illuminated
May 4
Waning Crescent
May 9
New
May 18
First Quarter
May 25
Full
May 31
Last Quarter

Hourly Weather History & Observations

Time (EDT) Temp. Dew Point Humidity Pressure Visibility Wind Dir Wind Speed Gust Speed Precip Events Conditions
12:53 AM 57.9 °F 44.1 °F 60% 30.20 in 10.0 mi SE 3.5 mph - N/A   Clear
1:53 AM 60.1 °F 41.0 °F 49% 30.20 in 10.0 mi South 4.6 mph - N/A   Clear
2:53 AM 57.9 °F 39.9 °F 51% 30.20 in 10.0 mi South 4.6 mph - N/A   Clear
3:53 AM 55.0 °F 41.0 °F 59% 30.21 in 10.0 mi Calm Calm - N/A   Clear
4:53 AM 55.0 °F 39.9 °F 57% 30.22 in 10.0 mi South 4.6 mph - N/A   Clear
5:53 AM 54.0 °F 39.0 °F 57% 30.23 in 10.0 mi South 6.9 mph - N/A   Clear
6:53 AM 54.0 °F 39.9 °F 59% 30.25 in 10.0 mi South 8.1 mph - N/A   Clear
7:00 AM 55.4 °F 39.2 °F 54% 30.24 in 10.0 mi South 5.8 mph - N/A   Partly Cloudy
7:53 AM 57.0 °F 37.9 °F 49% 30.25 in 10.0 mi South 9.2 mph - N/A   Partly Cloudy
8:53 AM 57.9 °F 33.1 °F 39% 30.27 in 10.0 mi South 11.5 mph - N/A   Partly Cloudy
9:53 AM 61.0 °F 33.1 °F 35% 30.26 in 10.0 mi SSE 4.6 mph - N/A   Partly Cloudy
10:53 AM 64.9 °F 33.1 °F 31% 30.25 in 10.0 mi Calm Calm - N/A   Partly Cloudy
11:53 AM 66.9 °F 33.1 °F 28% 30.24 in 10.0 mi ENE 6.9 mph - N/A   Partly Cloudy
12:53 PM 70.0 °F 34.0 °F 27% 30.22 in 10.0 mi NE 11.5 mph - N/A   Partly Cloudy
1:53 PM 71.1 °F 39.9 °F 32% 30.19 in 10.0 mi NNE 16.1 mph 20.7 mph N/A   Partly Cloudy
2:53 PM 71.1 °F 39.0 °F 31% 30.18 in 10.0 mi NNE 16.1 mph 24.2 mph N/A   Partly Cloudy
3:53 PM 71.1 °F 39.9 °F 32% 30.16 in 10.0 mi NE 17.3 mph 20.7 mph N/A   Partly Cloudy
4:53 PM 71.1 °F 39.9 °F 32% 30.15 in 10.0 mi NNE 17.3 mph 23.0 mph N/A   Partly Cloudy
5:53 PM 71.1 °F 42.1 °F 35% 30.13 in 10.0 mi NE 13.8 mph - N/A   Partly Cloudy
6:53 PM 68.0 °F 42.1 °F 39% 30.13 in 10.0 mi NE 12.7 mph - N/A   Partly Cloudy
7:53 PM 64.9 °F 43.0 °F 45% 30.13 in 10.0 mi NE 9.2 mph - N/A   Partly Cloudy
8:53 PM 61.0 °F 43.0 °F 52% 30.14 in 10.0 mi ENE 9.2 mph - N/A   Partly Cloudy
9:53 PM 57.9 °F 42.1 °F 56% 30.14 in 10.0 mi East 9.2 mph - N/A   Partly Cloudy
10:53 PM 55.0 °F 42.1 °F 62% 30.15 in 10.0 mi East 6.9 mph - N/A   Partly Cloudy
11:53 PM 54.0 °F 42.1 °F 64% 30.15 in 10.0 mi ESE 6.9 mph - N/A   Clear